{"data":{"norad_id":48149,"intl_designator":"2021-027BK","name":"STARLINK-2492","alt_names":[],"object_type":"PAYLOAD","status":"ACTIVE","operator":null,"country":"US","launch_date":"2021-04-07","launch_site_code":"AFETR","launch_vehicle":null,"mission":null,"orbit_class":"UNKNOWN","rcs_meters":null,"size_class":null,"mass_kg":null,"dimensions":null,"purposes":["comms"],"wikipedia_slug":null,"has_3d_model":false,"image_url":null,"decayed_at":null,"tle_current":{"epoch":"2026-05-25T01:28:57.237312Z","epoch_age_seconds":69169,"freshness":"FRESH","line1":"1 48149U 21027BK  26145.06177358  .00001771  00000+0  71929-4 0  9990","line2":"2 48149  53.1580 157.7088 0001443  94.3920 265.7246 15.30193875284373","mean_motion":15.30193875,"eccentricity":0.0001443,"inclination_deg":53.158,"raan_deg":157.7088,"arg_perigee_deg":94.392,"mean_anomaly_deg":265.7246,"bstar":7.1929e-5,"rev_number":28437,"period_min":94.105722387629,"perigee_km":474.24441628368,"apogee_km":476.22229896889,"semimajor_km":6853.3703576263,"source":"CELESTRAK","updated_at":"2026-05-25T13:38:16.651865Z"}}}